{"data":{"norad_id":53436,"intl_designator":"2022-097BA","name":"STARLINK-4527","alt_names":[],"object_type":"PAYLOAD","status":"ACTIVE","operator":null,"country":"US","launch_date":"2022-08-10","launch_site_code":"AFETR","launch_vehicle":null,"mission":null,"orbit_class":"UNKNOWN","rcs_meters":null,"size_class":null,"mass_kg":null,"dimensions":null,"purposes":["comms"],"wikipedia_slug":null,"has_3d_model":false,"image_url":null,"decayed_at":null,"tle_current":{"epoch":"2026-05-25T05:34:48.935712Z","epoch_age_seconds":51653,"freshness":"FRESH","line1":"1 53436U 22097BA  26145.23251083 -.00000418  00000+0 -82096-5 0  9997","line2":"2 53436  53.2145 120.1884 0001133  84.2521 275.8601 15.08839624210342","mean_motion":15.08839624,"eccentricity":0.0001133,"inclination_deg":53.2145,"raan_deg":120.1884,"arg_perigee_deg":84.2521,"mean_anomaly_deg":275.8601,"bstar":-8.2096e-6,"rev_number":21034,"period_min":95.437578460625,"perigee_km":538.96074226764,"apogee_km":540.5283342242,"semimajor_km":6917.8815382459,"source":"CELESTRAK","updated_at":"2026-05-25T13:38:17.407143Z"}}}